[[{"header":{"parameterUnit":"m.s-1","parameterCategory":1,"la1":30.2991,"la2":30.254,"lo1":-89.0895,"lo2":-89.0444,"dy":0.0017,"dx":0.0017,"nx":28,"ny":28,"refTime":"2025-07-18T03:00:00:Z","depth":0,"parameterNumber":2,"parameterNumberName":"U-component_of_WINDS"},"data":[0,0,0,0,0,0,0,0,0,0,0,0,0,0,0,0,0,0,0,0,0,0,0,0,0,0,0,0,0,0,0,0,0,0,0,0,0,0,0,0,0,0,0,0,0,0,0,0,0,0,0,0,0,0,0,0,0,0,1.061,1.061,0,1.064,1.0641,1.0641,1.0607,1.0605,1.0604,1.0603,1.0637,1.0639,1.0641,0,0,0,0,0,0,0,0,0,0,0,0,0,1.0523,1.0525,1.061,1.061,1.061,1.064,1.0641,1.0641,1.0607,1.0605,1.0604,1.0602,1.0636,1.0639,1.0641,0,0,0,0,0,0,0,0,0,0,0,0,0,1.0558,1.0525,1.0609,1.0597,1.0596,1.064,1.0641,1.0641,1.0607,1.0605,1.0603,1.0601,1.0635,1.0639,1.0642,1.0701,0,0,1.0651,1.0653,0,0,0,0,0,0,0,0,1.0556,1.0561,1.0598,1.0598,1.0597,1.0617,1.0623,1.0661,1.0608,1.0603,1.0603,1.06,1.0632,1.0636,1.0646,1.0702,1.0704,1.0652,1.0654,1.0655,1.0656,0,0,0,0,0,0,0,1.0554,1.056,1.0622,1.0599,1.0598,1.059,1.0593,1.063,1.0628,1.0603,1.0601,1.0605,1.0632,1.0643,1.0646,1.0704,1.0652,1.0655,1.0657,1.0658,1.081,1.0812,0,0,0,0,0,0,1.0552,1.0558,1.0621,1.0623,1.0571,1.0593,1.0596,1.0613,1.0628,1.0628,1.0606,1.0603,1.0638,1.0643,1.0647,1.0716,1.0655,1.0658,1.066,1.0807,1.081,1.0812,0,0,0,0,0,0,1.0551,1.0558,1.062,1.059,1.0597,1.0597,1.0616,1.0615,1.0626,1.063,1.063,1.0618,1.0637,1.0643,1.0687,1.0717,1.066,1.0662,1.0805,1.0808,1.0811,1.0856,0,0,0,0,0,0,1.0548,1.0558,1.058,1.059,1.0598,1.0659,1.0618,1.0617,1.0631,1.0627,1.0641,1.0642,1.0636,1.0683,1.069,1.0721,1.0665,1.0802,1.0806,1.081,1.0852,1.086,1.0867,0,0,0,0,0,1.0545,1.0592,1.0581,1.0589,1.0626,1.066,1.0665,1.0657,1.0634,1.0656,1.0659,1.0641,1.0713,1.0687,1.0696,1.0728,1.08,1.0805,1.081,1.0848,1.0859,1.0867,0,0,0,0,0,0,1.0587,1.0593,1.0581,1.0633,1.0646,1.0654,1.0683,1.0668,1.0689,1.0684,1.0674,1.0677,1.0724,1.073,1.0702,1.0785,1.0753,1.0759,1.0779,1.0789,1.0797,1.0794,1.0668,0,0,0,0,0,1.0602,1.0628,1.0633,1.0678,1.0685,1.0683,1.0698,1.069,1.0703,1.0709,1.0715,1.073,1.0755,1.0772,1.0796,1.0852,1.0855,1.0878,1.0886,1.0893,1.0898,1.0927,1.0938,1.0828,1.0828,1.0828,0,0,1.0634,1.064,1.0658,1.0687,1.0696,1.0724,1.0688,1.072,1.074,1.0714,1.0756,1.0761,1.0776,1.0826,1.0849,1.0833,1.0929,1.0899,1.0904,1.0906,1.0933,1.0944,1.0953,1.0831,1.0831,1.083,0,0,1.0705,1.0714,1.0751,1.0761,1.0775,1.0773,1.0782,1.0792,1.0794,1.0835,1.0816,1.0841,1.0885,1.0897,1.0908,1.0983,1.0967,1.0991,1.1032,1.106,1.1069,1.1077,1.1103,1.1112,1.0997,1.0997,1.0997,0,1.0743,1.0784,1.0773,1.0805,1.0818,1.0794,1.0833,1.0843,1.0865,1.0874,1.0856,1.091,1.0919,1.0971,1.0989,1.0999,1.1009,1.0989,1.1069,1.1076,1.1083,1.1108,1.1117,1.1,1.0999,1.0999,1.0999,0,1.0829,1.0858,1.0887,1.0907,1.0923,1.0958,1.0953,1.0971,1.0961,1.0961,1.1003,1.1012,1.1037,1.1049,1.1041,1.11,1.1089,1.107,1.1038,1.1096,1.1119,1.1129,1.1004,1.1003,1.1002,1.1001,0,0,1.0929,1.0941,1.0952,1.096,1.0973,1.0995,1.1029,1.1052,1.1067,1.1083,1.1111,1.1148,1.113,1.1144,1.1136,1.1161,1.1218,1.1139,1.1139,1.1153,1.1283,1.1297,1.1308,1.1208,1.121,1.1211,1.1281,0,1.1001,1.1058,1.1049,1.1105,1.1131,1.1108,1.1137,1.1149,1.1149,1.1172,1.1172,1.1199,1.1173,1.1181,1.1204,1.1206,1.1244,1.1201,1.1234,1.1235,1.1231,1.132,1.1335,1.1401,1.129,1.1292,1.1293,0,1.1092,1.1109,1.1167,1.1175,1.1185,1.1212,1.1231,1.1253,1.1265,1.1264,1.1278,1.1266,1.1299,1.1266,1.1313,1.1284,1.1297,1.13,1.1302,1.1304,1.1268,1.1324,1.1421,1.1431,1.1307,1.1306,1.1305,0,1.1158,1.1195,1.1235,1.1243,1.1253,1.1272,1.1277,1.1287,1.1301,1.1319,1.1327,1.1349,1.1361,1.1378,1.1372,1.1349,1.142,1.1386,1.1419,1.1419,1.1435,1.1434,1.1535,1.1444,1.1444,1.1444,1.1444,0,1.1238,1.1275,1.1264,1.1289,1.1329,1.1317,1.1357,1.136,1.1369,1.1393,1.1375,1.1399,1.1389,1.1412,1.1408,1.1447,1.1452,1.1452,1.145,1.1454,1.1453,1.1462,1.1457,1.1447,1.1446,1.1445,1.1445,0,1.1319,1.1313,1.1354,1.136,1.1362,1.1391,1.1396,1.1419,1.1417,1.1449,1.1455,1.1453,1.1479,1.1475,1.1504,1.1501,1.1549,1.1542,1.1544,1.1543,1.1576,1.1572,1.1685,1.1699,1.16,1.1601,1.1601,0,1.137,1.1397,1.1405,1.142,1.1426,1.145,1.1463,1.1453,1.1468,1.1483,1.1504,1.1528,1.1547,1.1589,1.1591,1.1613,1.1606,1.1644,1.1609,1.1611,1.1606,1.1604,1.1606,1.1651,1.1652,1.1653,1.1654,0,1.1462,1.1457,1.1477,1.1496,1.1513,1.1527,1.154,1.1553,1.1544,1.1562,1.1587,1.1602,1.163,1.1654,1.1674,1.168,1.1666,1.1664,1.1673,1.1676,1.1676,1.1676,1.1563,1.1662,1.1661,1.166,1.166,1.166,1.1529,1.1552,1.156,1.1583,1.1591,1.1603,1.1624,1.1625,1.1646,1.1667,1.166,1.1689,1.17,1.1725,1.1733,1.1755,1.1741,1.1754,1.1757,1.1761,1.1764,1.1673,1.1759,1.1759,1.1759,1.1759,1.1758,0,1.1619,1.1623,1.1644,1.1662,1.1679,1.1662,1.1676,1.1692,1.1717,1.1728,1.1746,1.1775,1.1797,1.18,1.1822,1.1839,1.1833,1.1845,1.1844,1.1845,1.1776,1.1766,1.185,1.185,1.185,1.185,1.185,1.185,1.1668,1.1705,1.1701,1.1742,1.1746,1.1773,1.1782,1.1793,1.1801,1.1834,1.1852,1.1854,1.1861,1.1883,1.1903,1.1903,1.1911,1.1926,1.1924,1.1859,1.185,1.1842,1.1832,1.1928,1.1929,1.1991,1.1992,1.1992]},{"header":{"parameterUnit":"m.s-1","parameterCategory":1,"la1":30.2991,"la2":30.254,"lo1":-89.0895,"lo2":-89.0444,"dy":0.0017,"dx":0.0017,"nx":28,"ny":28,"refTime":"2025-07-18T03:00:00:Z","depth":0,"parameterNumber":3,"parameterNumberName":"V-component_of_WINDS"},"data":[0,0,0,0,0,0,0,0,0,0,0,0,0,0,0,0,0,0,0,0,0,0,0,0,0,0,0,0,0,0,0,0,0,0,0,0,0,0,0,0,0,0,0,0,0,0,0,0,0,0,0,0,0,0,0,0,0,0,5.5624,5.5625,0,5.5747,5.5749,5.575,5.5756,5.5755,5.5754,5.5752,5.5869,5.5874,5.5878,0,0,0,0,0,0,0,0,0,0,0,0,0,5.5383,5.5387,5.5624,5.5625,5.5627,5.5747,5.5749,5.5751,5.5757,5.5755,5.5753,5.5752,5.5868,5.5873,5.5878,0,0,0,0,0,0,0,0,0,0,0,0,0,5.5495,5.5389,5.5623,5.5645,5.5648,5.5747,5.5749,5.5751,5.5757,5.5755,5.5753,5.5751,5.5866,5.5873,5.5879,5.5963,0,0,5.59,5.5902,0,0,0,0,0,0,0,0,5.5488,5.5504,5.564,5.5643,5.5647,5.5735,5.5707,5.5822,5.5758,5.5715,5.5752,5.575,5.5826,5.5835,5.5863,5.5968,5.5973,5.59,5.5904,5.5907,5.5909,0,0,0,0,0,0,0,5.5481,5.5498,5.5672,5.5642,5.5646,5.5645,5.5658,5.5729,5.578,5.5719,5.572,5.5735,5.5827,5.5857,5.5866,5.5975,5.59,5.5906,5.591,5.5913,5.6154,5.6156,0,0,0,0,0,0,5.547,5.5492,5.5668,5.5676,5.5561,5.5651,5.5666,5.5708,5.578,5.5789,5.5736,5.5734,5.5846,5.5858,5.587,5.5973,5.5907,5.5913,5.5917,5.6151,5.6154,5.6157,0,0,0,0,0,0,5.5465,5.5486,5.5663,5.5584,5.5607,5.5657,5.5705,5.5712,5.5742,5.5793,5.5801,5.5758,5.5845,5.586,5.594,5.5977,5.5916,5.5922,5.6149,5.6152,5.6156,5.6178,0,0,0,0,0,0,5.5458,5.5484,5.5519,5.5585,5.5611,5.5735,5.5707,5.5716,5.5754,5.5753,5.5815,5.5824,5.5845,5.593,5.5947,5.5985,5.5927,5.6145,5.615,5.6154,5.6174,5.6182,5.6189,0,0,0,0,0,5.5449,5.5518,5.552,5.5542,5.5656,5.5737,5.5751,5.5777,5.5757,5.5791,5.5824,5.5822,5.597,5.5938,5.5957,5.5997,5.6143,5.6149,5.6154,5.6171,5.6181,5.6189,0,0,0,0,0,0,5.5451,5.5527,5.5531,5.5624,5.5674,5.5738,5.5781,5.5786,5.584,5.5837,5.5863,5.5877,5.5956,5.5984,5.5948,5.6081,5.6054,5.6063,5.606,5.607,5.6077,5.6068,5.5933,0,0,0,0,0,5.5463,5.5526,5.5587,5.5663,5.5688,5.573,5.5766,5.5782,5.5834,5.5854,5.5893,5.5941,5.5998,5.6035,5.6091,5.6178,5.6191,5.6215,5.6222,5.6228,5.6236,5.6283,5.6294,5.6175,5.6175,5.6175,0,0,5.5487,5.5536,5.5573,5.5665,5.5706,5.5767,5.5748,5.5814,5.5859,5.5863,5.5942,5.5972,5.6027,5.6111,5.6149,5.6137,5.6271,5.6235,5.6239,5.6244,5.629,5.6301,5.6311,5.6178,5.6178,5.6177,0,0,5.5562,5.5606,5.5674,5.5716,5.578,5.5807,5.5823,5.5887,5.5908,5.5988,5.5993,5.6044,5.6143,5.6182,5.6215,5.6304,5.6304,5.6321,5.6358,5.6404,5.6414,5.6422,5.6454,5.6465,5.6328,5.6329,5.6329,0,5.5583,5.5679,5.5708,5.5775,5.5813,5.5824,5.5891,5.5929,5.6006,5.6031,5.6017,5.6141,5.6178,5.6271,5.6293,5.6319,5.6337,5.6314,5.6411,5.642,5.6428,5.6458,5.647,5.633,5.633,5.633,5.633,0,5.5701,5.5767,5.5814,5.5892,5.5936,5.6002,5.6039,5.6079,5.609,5.6118,5.6198,5.6244,5.6309,5.6332,5.6342,5.6426,5.6416,5.6406,5.6379,5.6441,5.6469,5.6481,5.6333,5.6332,5.6332,5.6331,0,0,5.5781,5.5875,5.5892,5.5927,5.5998,5.6048,5.6113,5.618,5.6214,5.6266,5.632,5.6403,5.6395,5.6432,5.6446,5.6486,5.6554,5.6471,5.6473,5.6485,5.6648,5.6656,5.6669,5.6554,5.6556,5.6558,5.6644,0,5.5864,5.5986,5.6014,5.6116,5.6177,5.6187,5.6244,5.6291,5.6319,5.6371,5.64,5.6459,5.6443,5.6466,5.6506,5.6537,5.6587,5.6531,5.6603,5.6605,5.659,5.6684,5.6693,5.6772,5.6655,5.6657,5.6658,0,5.5978,5.6037,5.6147,5.621,5.6236,5.6287,5.635,5.6401,5.6454,5.6471,5.6513,5.6523,5.6588,5.6558,5.6648,5.6609,5.6639,5.6659,5.6663,5.667,5.6636,5.6695,5.6797,5.6809,5.6677,5.6675,5.6674,0,5.6026,5.6131,5.6211,5.6241,5.6316,5.6352,5.6384,5.6435,5.6473,5.6527,5.6552,5.6611,5.6643,5.6687,5.6712,5.6688,5.68,5.6771,5.6814,5.6813,5.6837,5.6836,5.6947,5.6856,5.6856,5.6856,5.6856,0,5.6116,5.6183,5.6234,5.6283,5.6357,5.6386,5.6458,5.6489,5.6535,5.6588,5.6598,5.6647,5.6677,5.6729,5.6748,5.6819,5.6833,5.6847,5.6851,5.6847,5.6845,5.6867,5.6862,5.6859,5.6859,5.6858,5.6857,0,5.6183,5.622,5.6307,5.6372,5.6389,5.6441,5.6494,5.6541,5.6568,5.6635,5.6652,5.6694,5.6756,5.6786,5.6861,5.6874,5.6955,5.6955,5.6938,5.694,5.6981,5.6977,5.711,5.7129,5.7026,5.7027,5.7028,0,5.6238,5.6291,5.6361,5.6399,5.6433,5.6494,5.6534,5.6563,5.6604,5.6668,5.6706,5.6769,5.6821,5.6919,5.6954,5.7012,5.7014,5.7057,5.7022,5.7016,5.7014,5.7011,5.7016,5.7063,5.7064,5.7064,5.7065,0,5.6333,5.6349,5.6408,5.6473,5.6521,5.6573,5.6624,5.6653,5.669,5.6735,5.68,5.6841,5.6919,5.6981,5.7041,5.707,5.7074,5.7076,5.7089,5.7084,5.7073,5.708,5.6955,5.7073,5.7072,5.7071,5.7071,5.7071,5.6396,5.6443,5.65,5.6565,5.6607,5.6654,5.6702,5.6736,5.6792,5.6861,5.6873,5.6942,5.6992,5.7074,5.7105,5.7158,5.7147,5.7166,5.7171,5.7175,5.7178,5.7064,5.7168,5.7168,5.7168,5.7168,5.7168,0,5.6491,5.6529,5.6589,5.6661,5.6712,5.6713,5.6769,5.681,5.6872,5.692,5.6972,5.7046,5.7106,5.7146,5.7206,5.724,5.7243,5.7255,5.7252,5.7259,5.7183,5.7166,5.7251,5.7251,5.7251,5.7251,5.7251,5.7251,5.6547,5.6627,5.6649,5.6748,5.6785,5.6855,5.6887,5.6929,5.6968,5.7052,5.7103,5.713,5.7174,5.7237,5.7291,5.7301,5.7323,5.7335,5.7345,5.7273,5.7264,5.7256,5.724,5.734,5.734,5.7416,5.7417,5.7418]}]]